When you browse on this site, cookies collect data to enhance your experience and personalize the content and advertising you see.
Visit our Privacy Policy to learn more. By continuing to use the site, you agree to this use of cookies and data.
  • In Czech Republic
  • List of Countries
  • For 7 days
  • Water Temperature
  • Weather Map
  • Weather Widgets
  • user-avatar
    Login

    Hourly Weather Shkoder

    Today, 24 September, Tuesday

    Time Temperature Precipitation Wind Pressure Humidity
    00:00 +20°C° 1.6 mm 1 mps 736 mmHg 95%
    01:00 +19°C° 0 mm 2 mps 736 mmHg 96%
    02:00 +19°C° 1.4 mm 2 mps 735 mmHg 96%
    03:00 +19°C° 1.4 mm 2 mps 735 mmHg 96%
    04:00 +19°C° 1.4 mm 2 mps 734 mmHg 95%
    05:00 +19°C° 1.5 mm 2 mps 734 mmHg 95%
    06:00 +19°C° 1.5 mm 2 mps 734 mmHg 94%
    07:00 +20°C° 1.5 mm 2 mps 735 mmHg 94%
    08:00 +21°C° 1.5 mm 2 mps 735 mmHg 88%
    09:00 +23°C° 1.5 mm 2 mps 735 mmHg 82%
    10:00 +24°C° 1.5 mm 3 mps 735 mmHg 76%
    11:00 +24°C° 1 mm 3 mps 735 mmHg 73%
    12:00 +24°C° 1 mm 3 mps 735 mmHg 71%
    13:00 +24°C° 1 mm 3 mps 735 mmHg 68%
    14:00 +22°C° 0.1 mm 3 mps 735 mmHg 70%
    15:00 +23°C° 0.1 mm 2 mps 735 mmHg 71%
    16:00 +23°C° 0.1 mm 2 mps 735 mmHg 73%
    17:00 +20°C° 0 mm 2 mps 735 mmHg 80%
    18:00 +20°C° 0 mm 1 mps 735 mmHg 86%
    19:00 +16°C° 0 mm 0 mps 736 mmHg 93%
    20:00 +18°C° 0 mm 1 mps 736 mmHg 93%
    21:00 +18°C° 0 mm 1 mps 736 mmHg 92%
    22:00 +18°C° 0 mm 1 mps 736 mmHg 91%
    23:00 +18°C° 0 mm 1 mps 736 mmHg 91%

    Tomorrow, 25 September, Wednesday

    Time Temperature Precipitation Wind Pressure Humidity
    00:00 +18°C° 0 mm 1 mps 736 mmHg 91%
    01:00 +16°C° 0 mm 1 mps 736 mmHg 90%
    02:00 +16°C° 0 mm 1 mps 736 mmHg 90%
    03:00 +16°C° 0 mm 1 mps 736 mmHg 90%
    04:00 +16°C° 0 mm 1 mps 736 mmHg 89%
    05:00 +18°C° 0 mm 1 mps 736 mmHg 87%
    06:00 +18°C° 0 mm 1 mps 736 mmHg 85%
    07:00 +19°C° 0 mm 1 mps 736 mmHg 82%
    08:00 +20°C° 0 mm 1 mps 736 mmHg 77%
    09:00 +22°C° 0 mm 1 mps 737 mmHg 72%
    10:00 +23°C° 0 mm 1 mps 737 mmHg 67%
    11:00 +24°C° 0 mm 2 mps 737 mmHg 65%
    12:00 +24°C° 0 mm 2 mps 736 mmHg 62%
    13:00 +25°C° 0 mm 3 mps 736 mmHg 60%
    14:00 +24°C° 0 mm 2 mps 736 mmHg 62%
    15:00 +24°C° 0 mm 2 mps 736 mmHg 65%
    16:00 +23°C° 0 mm 2 mps 736 mmHg 67%
    17:00 +21°C° 0 mm 2 mps 736 mmHg 74%
    18:00 +20°C° 0 mm 1 mps 736 mmHg 81%
    19:00 +19°C° 0 mm 1 mps 736 mmHg 88%
    20:00 +18°C° 0 mm 1 mps 737 mmHg 87%
    21:00 +18°C° 0 mm 1 mps 737 mmHg 85%
    22:00 +18°C° 0 mm 1 mps 737 mmHg 84%
    23:00 +18°C° 0 mm 1 mps 737 mmHg 84%

    Day after tomorrow, 26 September, Thursday

    Time Temperature Precipitation Wind Pressure Humidity
    00:00 +18°C° 0 mm 1 mps 737 mmHg 85%
    01:00 +18°C° 0 mm 1 mps 737 mmHg 85%
    02:00 +18°C° 0 mm 1 mps 737 mmHg 84%
    03:00 +18°C° 0 mm 1 mps 737 mmHg 84%
    04:00 +18°C° 0 mm 1 mps 737 mmHg 83%
    05:00 +18°C° 0.3 mm 1 mps 737 mmHg 82%
    06:00 +19°C° 0.3 mm 1 mps 737 mmHg 82%
    07:00 +19°C° 0.3 mm 1 mps 737 mmHg 81%
    08:00 +19°C° 0.8 mm 1 mps 737 mmHg 82%
    09:00 +20°C° 0.8 mm 1 mps 738 mmHg 82%
    10:00 +20°C° 0.8 mm 1 mps 738 mmHg 83%
    11:00 +21°C° 0.9 mm 1 mps 738 mmHg 83%
    12:00 +21°C° 0.9 mm 1 mps 738 mmHg 83%
    13:00 +21°C° 0.9 mm 1 mps 738 mmHg 83%
    14:00 +22°C° 0.5 mm 1 mps 738 mmHg 82%
    15:00 +22°C° 0.5 mm 1 mps 738 mmHg 81%
    16:00 +22°C° 0.5 mm 1 mps 738 mmHg 80%
    17:00 +21°C° 0.1 mm 1 mps 738 mmHg 83%
    18:00 +20°C° 0.1 mm 1 mps 739 mmHg 87%
    19:00 +19°C° 0.1 mm 1 mps 739 mmHg 90%
    20:00 +19°C° 0 mm 1 mps 739 mmHg 90%
    21:00 +19°C° 0 mm 1 mps 740 mmHg 89%
    22:00 +19°C° 0 mm 1 mps 740 mmHg 89%
    23:00 +18°C° 0 mm 1 mps 740 mmHg 89%

    27 September, Friday

    Time Temperature Precipitation Wind Pressure Humidity
    00:00 +17°C° 0 mm 2 mps 740 mmHg 89%
    01:00 +17°C° 0 mm 2 mps 741 mmHg 89%
    02:00 +16°C° 0 mm 2 mps 741 mmHg 89%
    03:00 +16°C° 0 mm 2 mps 741 mmHg 88%
    04:00 +16°C° 0 mm 2 mps 741 mmHg 88%
    05:00 +16°C° 0 mm 2 mps 741 mmHg 86%
    06:00 +17°C° 0 mm 2 mps 741 mmHg 84%
    07:00 +17°C° 0 mm 3 mps 741 mmHg 81%
    08:00 +19°C° 0 mm 2 mps 741 mmHg 73%
    09:00 +20°C° 0 mm 2 mps 741 mmHg 65%
    10:00 +23°C° 0 mm 2 mps 742 mmHg 56%
    11:00 +24°C° 0 mm 2 mps 741 mmHg 52%
    12:00 +24°C° 0 mm 2 mps 741 mmHg 48%
    13:00 +25°C° 0 mm 2 mps 741 mmHg 44%
    14:00 +25°C° 0 mm 2 mps 741 mmHg 46%
    15:00 +25°C° 0 mm 2 mps 741 mmHg 47%
    16:00 +25°C° 0 mm 2 mps 741 mmHg 49%
    17:00 +23°C° 0 mm 2 mps 741 mmHg 54%
    18:00 +20°C° 0 mm 2 mps 741 mmHg 59%
    19:00 +18°C° 0 mm 2 mps 741 mmHg 64%
    20:00 +18°C° 0 mm 2 mps 741 mmHg 65%
    21:00 +18°C° 0 mm 2 mps 742 mmHg 66%
    22:00 +17°C° 0 mm 2 mps 742 mmHg 67%
    23:00 +17°C° 0 mm 2 mps 742 mmHg 68%

    28 September, Saturday

    Time Temperature Precipitation Wind Pressure Humidity
    00:00 +17°C° 0 mm 2 mps 742 mmHg 69%
    01:00 +17°C° 0 mm 2 mps 742 mmHg 69%
    02:00 +16°C° 0 mm 2 mps 742 mmHg 69%
    03:00 +16°C° 0 mm 2 mps 742 mmHg 69%
    04:00 +16°C° 0 mm 2 mps 741 mmHg 69%
    05:00 +17°C° 0 mm 2 mps 741 mmHg 68%
    06:00 +18°C° 0 mm 2 mps 741 mmHg 66%
    07:00 +19°C° 0 mm 1 mps 741 mmHg 64%
    08:00 +22°C° 0 mm 1 mps 742 mmHg 59%
    09:00 +24°C° 0 mm 1 mps 742 mmHg 53%
    10:00 +26°C° 0 mm 1 mps 742 mmHg 47%
    11:00 +26°C° 0 mm 1 mps 742 mmHg 46%
    12:00 +27°C° 0 mm 2 mps 741 mmHg 44%
    13:00 +27°C° 0 mm 2 mps 741 mmHg 42%
    14:00 +27°C° 0 mm 2 mps 741 mmHg 46%
    15:00 +26°C° 0 mm 2 mps 741 mmHg 49%
    16:00 +25°C° 0 mm 2 mps 740 mmHg 52%
    17:00 +24°C° 0 mm 1 mps 741 mmHg 58%
    18:00 +22°C° 0 mm 1 mps 741 mmHg 64%
    19:00 +20°C° 0 mm 1 mps 741 mmHg 71%
    20:00 +20°C° 0 mm 1 mps 741 mmHg 70%
    21:00 +20°C° 0 mm 1 mps 741 mmHg 69%
    22:00 +19°C° 0 mm 1 mps 741 mmHg 68%
    23:00 +19°C° 0 mm 1 mps 741 mmHg 68%

    29 September, Sunday

    Time Temperature Precipitation Wind Pressure Humidity
    00:00 +19°C° 0 mm 1 mps 741 mmHg 68%
    01:00 +19°C° 0 mm 1 mps 741 mmHg 68%
    02:00 +18°C° 0 mm 1 mps 741 mmHg 67%
    03:00 +18°C° 0 mm 1 mps 741 mmHg 66%
    04:00 +18°C° 0 mm 1 mps 740 mmHg 65%
    05:00 +19°C° 0 mm 1 mps 741 mmHg 63%
    06:00 +20°C° 0 mm 1 mps 741 mmHg 61%
    07:00 +21°C° 0 mm 1 mps 741 mmHg 59%
    08:00 +22°C° 0 mm 1 mps 741 mmHg 55%
    09:00 +24°C° 0 mm 1 mps 741 mmHg 50%
    10:00 +26°C° 0 mm 1 mps 741 mmHg 45%
    11:00 +27°C° 0 mm 1 mps 741 mmHg 44%
    12:00 +27°C° 0 mm 2 mps 740 mmHg 43%
    13:00 +28°C° 0 mm 2 mps 740 mmHg 42%
    14:00 +27°C° 0 mm 2 mps 740 mmHg 45%
    15:00 +26°C° 0 mm 2 mps 739 mmHg 49%
    16:00 +26°C° 0 mm 2 mps 739 mmHg 52%
    17:00 +24°C° 0 mm 1 mps 739 mmHg 58%
    18:00 +22°C° 0 mm 1 mps 739 mmHg 65%
    19:00 +20°C° 0 mm 1 mps 739 mmHg 71%
    20:00 +20°C° 0 mm 1 mps 739 mmHg 70%
    21:00 +20°C° 0 mm 1 mps 739 mmHg 69%
    22:00 +19°C° 0 mm 1 mps 740 mmHg 68%
    23:00 +19°C° 0 mm 1 mps 739 mmHg 68%
    Show more